Hourly Data Report for October 27, 2017

All times are specified in Local Standard Time (LST). Add 1 hour to adjust for Daylight Saving Time where and when it is observed.

SATURNA ISLAND CS
BRITISH COLUMBIA

48°47'02.067" N
123°02'41.082" W
24.40 m
1017101
71473
WEZ

Download Data

Hourly Data (October 2017)
Hourly Data Report for October 27, 2017
Temp Definition
°C
Dew Point Temp Definition
°C
Rel Hum Definition
%
Wind Dir Definition
10's deg

Wind Spd Definition
km/h
Visibility Definition
km
Stn Press Definition
kPa
Hmdx Definition


Wind Chill Definition


Weather Definition


TIME
00:00 10.0 8.6 91 29 6   102.16     LegendNANA
01:00 9.9 8.5 91 29 6   102.15     LegendNANA
02:00 9.8 8.6 92 29 6   102.14     LegendNANA
03:00 9.7 8.5 92 30 5   102.09     LegendNANA
04:00 9.8 8.6 92 27 5   102.09     LegendNANA
05:00 9.7 8.6 93 27 5   102.09     LegendNANA
06:00 9.7 8.8 94 28 6   102.06     LegendNANA
07:00 9.4 8.6 94 29 6   102.07     LegendNANA
08:00 10.2 8.6 90 30 7   102.06     LegendNANA
09:00 11.2 8.6 84 28 6   102.07     LegendNANA
10:00 11.5 9.1 85 24 4   102.06     LegendNANA
11:00 12.0 8.9 81 26 5   102.04     LegendNANA
12:00 12.2 8.6 79 26 5   101.99     LegendNANA
13:00 12.9 7.7 71 25 5   101.94     LegendNANA
14:00 12.8 7.2 69 28 5   101.87     LegendNANA
15:00 12.8 6.8 67 26 3   101.82     LegendNANA
16:00 11.3 7.4 77 30 4   101.81     LegendNANA
17:00 11.4 7.6 77 28 5   101.77     LegendNANA
18:00 11.7 7.3 74 29 5   101.73     LegendNANA
19:00 11.6 7.3 75 30 6   101.70     LegendNANA
20:00 11.5 7.0 73 30 7   101.66     LegendNANA
21:00 11.4 7.2 75 31 8   101.64     LegendNANA
22:00 11.5 7.0 73 30 11   101.62     LegendNANA
23:00 11.7 6.7 71 30 10   101.61     LegendNANA

Notes on Data Quality.

Legend

  • E = Estimated
  • M = Missing
  • NA = Not Available
  • ‡ = Partner data that is not subject to review by the National Climate Archives
Date modified: